| time (UTC) | temp C | wind direction | speed KPH | gust KPH | rain 1hr cm | rain 24hr cm | rain mn cm | humidity % | barometer mb |
| 20260903082405 | 28 | 89 | 0.0 | 1.6 | 0.00 | 0.00 | 0.00 | 54 | 1014.8 |
| 20260903081903 | 28 | 215 | 0.0 | 1.6 | 0.00 | 0.00 | 0.00 | 53 | 1014.8 |
| 20260903080902 | 28 | 254 | 0.0 | 4.8 | 0.00 | 0.00 | 0.00 | 53 | 1014.8 |
| 20260903080403 | 28 | 246 | 0.0 | 4.8 | 0.00 | 0.00 | 0.00 | 53 | 1014.8 |
| 20260903075902 | 28 | 120 | 1.6 | 4.8 | 0.00 | 0.00 | 0.00 | 54 | 1014.8 |
| 20260903075402 | 28 | 114 | 1.6 | 4.8 | 0.00 | 0.00 | 0.00 | 53 | 1014.8 |
| 20260903074903 | 28 | 188 | 1.6 | 4.8 | 0.00 | 0.00 | 0.00 | 54 | 1014.9 |
| 20260903073902 | 28 | 221 | 0.0 | 4.8 | 0.00 | 0.00 | 0.00 | 54 | 1014.9 |
| 20260903072903 | 29 | 223 | 3.2 | 4.8 | 0.00 | 0.00 | 0.00 | 54 | 1014.8 |
| 20260903072402 | 29 | 228 | 3.2 | 4.8 | 0.00 | 0.00 | 0.00 | 53 | 1014.8 |
| 20260903071902 | 29 | 245 | 1.6 | 4.8 | 0.00 | 0.00 | 0.00 | 53 | 1014.8 |
| 20260903070403 | 29 | 241 | 1.6 | 4.8 | 0.00 | 0.00 | 0.00 | 54 | 1014.8 |
| 20260903065402 | 29 | 246 | 0.0 | 1.6 | 0.00 | 0.00 | 0.00 | 54 | 1014.6 |
| 20260903064903 | 29 | 246 | 0.0 | 3.2 | 0.00 | 0.00 | 0.00 | 54 | 1014.6 |
| 20260903064402 | 29 | 246 | 0.0 | 3.2 | 0.00 | 0.00 | 0.00 | 54 | 1014.5 |
| 20260903063902 | 29 | 246 | 1.6 | 3.2 | 0.00 | 0.00 | 0.00 | 55 | 1014.5 |
| 20260903063402 | 29 | 259 | 0.0 | 3.2 | 0.00 | 0.00 | 0.00 | 54 | 1014.5 |
| 20260903062403 | 29 | 296 | 0.0 | 1.6 | 0.00 | 0.00 | 0.00 | 54 | 1014.5 |
| 20260903061902 | 29 | 275 | 0.0 | 4.8 | 0.00 | 0.00 | 0.00 | 54 | 1014.6 |
| 20260903061402 | 29 | 231 | 1.6 | 4.8 | 0.00 | 0.00 | 0.00 | 54 | 1014.6 |
| 20260903060402 | 29 | 249 | 0.0 | 4.8 | 0.00 | 0.00 | 0.00 | 53 | 1014.6 |
| 20260903055903 | 29 | 238 | 0.0 | 4.8 | 0.00 | 0.00 | 0.00 | 52 | 1014.7 |
| 20260903055402 | 29 | 260 | 0.0 | 3.2 | 0.00 | 0.00 | 0.00 | 52 | 1014.7 |
| 20260903054903 | 30 | 260 | 0.0 | 3.2 | 0.00 | 0.00 | 0.00 | 51 | 1014.8 |
| 20260903054403 | 29 | 260 | 0.0 | 4.8 | 0.00 | 0.00 | 0.00 | 52 | 1014.8 |
| 20260903052402 | 30 | 71 | 0.0 | 3.2 | 0.00 | 0.00 | 0.00 | 52 | 1014.9 |
| 20260903051907 | 30 | 71 | 0.0 | 4.8 | 0.00 | 0.00 | 0.00 | 52 | 1014.8 |
| 20260903051402 | 30 | 83 | 1.6 | 4.8 | 0.00 | 0.00 | 0.00 | 51 | 1014.8 |
| 20260903050902 | 30 | 87 | 1.6 | 3.2 | 0.00 | 0.00 | 0.00 | 51 | 1014.8 |
| 20260903044402 | 30 | 204 | 0.0 | 4.8 | 0.00 | 0.00 | 0.00 | 50 | 1014.6 |
| 20260903043903 | 30 | 175 | 1.6 | 4.8 | 0.00 | 0.00 | 0.00 | 50 | 1014.6 |
| 20260903043403 | 30 | 140 | 1.6 | 8.0 | 0.00 | 0.00 | 0.00 | 50 | 1014.6 |
| 20260903042903 | 30 | 109 | 1.6 | 8.0 | 0.00 | 0.00 | 0.00 | 50 | 1014.5 |
| 20260903042403 | 30 | 118 | 1.6 | 8.0 | 0.00 | 0.00 | 0.00 | 49 | 1014.6 |
| 20260903041902 | 30 | 179 | 1.6 | 8.0 | 0.00 | 0.00 | 0.00 | 48 | 1014.6 |
| 20260903040903 | 30 | 105 | 3.2 | 8.0 | 0.00 | 0.00 | 0.00 | 48 | 1014.4 |
| 20260903040402 | 30 | 111 | 1.6 | 9.7 | 0.00 | 0.00 | 0.00 | 48 | 1014.3 |
| 20260903034903 | 31 | 112 | 3.2 | 9.7 | 0.00 | 0.00 | 0.00 | 48 | 1014.0 |
| 20260903034402 | 31 | 103 | 3.2 | 11.3 | 0.00 | 0.00 | 0.00 | 47 | 1014.0 |
| 20260903033903 | 31 | 114 | 3.2 | 11.3 | 0.00 | 0.00 | 0.00 | 46 | 1014.0 |
| 20260903031904 | 31 | 80 | 3.2 | 4.8 | 0.00 | 0.00 | 0.00 | 43 | 1013.6 |
| 20260903030902 | 31 | 130 | 1.6 | 4.8 | 0.00 | 0.00 | 0.00 | 42 | 1013.5 |
| 20260903030402 | 31 | 94 | 0.0 | 4.8 | 0.00 | 0.00 | 0.00 | 43 | 1013.4 |
| 20260903025903 | 31 | 103 | 1.6 | 4.8 | 0.00 | 0.00 | 0.00 | 42 | 1013.4 |
| 20260903025402 | 31 | 109 | 1.6 | 3.2 | 0.00 | 0.00 | 0.00 | 41 | 1013.4 |
| 20260903024403 | 32 | 99 | 1.6 | 3.2 | 0.00 | 0.00 | 0.00 | 40 | 1013.3 |
| 20260903023402 | 32 | 121 | 0.0 | 3.2 | 0.00 | 0.00 | 0.00 | 38 | 1013.2 |
| 20260903022903 | 32 | 131 | 0.0 | 4.8 | 0.00 | 0.00 | 0.00 | 38 | 1013.2 |
| 20260903022403 | 32 | 182 | 0.0 | 4.8 | 0.00 | 0.00 | 0.00 | 38 | 1013.2 |
| 20260903021403 | 32 | 168 | 0.0 | 4.8 | 0.00 | 0.00 | 0.00 | 39 | 1013.1 |
| 20260903020903 | 32 | 131 | 1.6 | 4.8 | 0.00 | 0.00 | 0.00 | 42 | 1013.1 |
| 20260903020403 | 32 | 117 | 3.2 | 4.8 | 0.00 | 0.00 | 0.00 | 43 | 1013.2 |
| 20260903015403 | 32 | 93 | 1.6 | 3.2 | 0.00 | 0.00 | 0.00 | 40 | 1013.1 |
| 20260903014903 | 33 | 98 | 1.6 | 3.2 | 0.00 | 0.00 | 0.00 | 37 | 1013.0 |
| 20260903014403 | 33 | 125 | 0.0 | 3.2 | 0.00 | 0.00 | 0.00 | 35 | 1013.1 |
| 20260903013902 | 33 | 238 | 0.0 | 3.2 | 0.00 | 0.00 | 0.00 | 35 | 1013.0 |
| 20260903013402 | 33 | 238 | 0.0 | 4.8 | 0.00 | 0.00 | 0.00 | 34 | 1012.9 |
| 20260903012903 | 33 | 235 | 3.2 | 4.8 | 0.00 | 0.00 | 0.00 | 35 | 1012.9 |
| 20260903012403 | 33 | 274 | 1.6 | 3.2 | 0.00 | 0.00 | 0.00 | 34 | 1012.9 |
| 20260903011903 | 33 | 280 | 0.0 | 3.2 | 0.00 | 0.00 | 0.00 | 34 | 1012.8 |
| 20260903011403 | 33 | 251 | 1.6 | 8.0 | 0.00 | 0.00 | 0.00 | 34 | 1012.8 |
| 20260903005902 | 33 | 233 | 3.2 | 8.0 | 0.00 | 0.00 | 0.00 | 34 | 1012.8 |
| 20260903005402 | 33 | 250 | 3.2 | 9.7 | 0.00 | 0.00 | 0.00 | 34 | 1012.8 |
| 20260903004402 | 33 | 230 | 3.2 | 4.8 | 0.00 | 0.00 | 0.00 | 37 | 1012.8 |
| 20260903003903 | 34 | 184 | 1.6 | 4.8 | 0.00 | 0.00 | 0.00 | 38 | 1012.9 |
| 20260903003403 | 34 | 231 | 1.6 | 8.0 | 0.00 | 0.00 | 0.00 | 39 | 1013.1 |
| 20260903001902 | 34 | 242 | 1.6 | 9.7 | 0.00 | 0.00 | 0.00 | 39 | 1013.0 |
| 20260903001403 | 34 | 307 | 3.2 | 9.7 | 0.00 | 0.00 | 0.00 | 38 | 1013.1 |
| 20260903000403 | 34 | 255 | 1.6 | 9.7 | 0.00 | 0.00 | 0.00 | 38 | 1013.0 |
| 20260902235403 | 34 | 335 | 1.6 | 4.8 | 0.00 | 0.00 | 0.00 | 38 | 1013.1 |
| 20260902234902 | 34 | 232 | 0.0 | 4.8 | 0.00 | 0.00 | 0.00 | 38 | 1013.1 |
| 20260902234403 | 34 | 335 | 0.0 | 4.8 | 0.00 | 0.00 | 0.00 | 38 | 1013.1 |
| 20260902232402 | 34 | 327 | 3.2 | 9.7 | 0.00 | 0.00 | 0.00 | 38 | 1013.1 |
| 20260902230902 | 35 | 276 | 1.6 | 4.8 | 0.00 | 0.00 | 0.00 | 36 | 1013.2 |
| 20260902224903 | 35 | 319 | 1.6 | 8.0 | 0.00 | 0.00 | 0.00 | 36 | 1013.5 |
| 20260902224403 | 35 | 204 | 1.6 | 8.0 | 0.00 | 0.00 | 0.00 | 36 | 1013.5 |
| 20260902223902 | 35 | 278 | 1.6 | 9.7 | 0.00 | 0.00 | 0.00 | 35 | 1013.5 |
| 20260902223403 | 35 | 165 | 3.2 | 9.7 | 0.00 | 0.00 | 0.00 | 35 | 1013.6 |
| 20260902222403 | 35 | 208 | 3.2 | 12.9 | 0.00 | 0.00 | 0.00 | 36 | 1013.7 |
| 20260902221903 | 35 | 2 | 3.2 | 11.3 | 0.00 | 0.00 | 0.00 | 36 | 1013.7 |
| 20260902220902 | 35 | 354 | 3.2 | 12.9 | 0.00 | 0.00 | 0.00 | 37 | 1013.8 |
| 20260902220403 | 35 | 280 | 4.8 | 12.9 | 0.00 | 0.00 | 0.00 | 36 | 1014.0 |
| 20260902215406 | 35 | 227 | 3.2 | 14.5 | 0.00 | 0.00 | 0.00 | 37 | 1014.1 |
| 20260902214902 | 35 | 246 | 1.6 | 16.1 | 0.00 | 0.00 | 0.00 | 38 | 1014.2 |
| 20260902214403 | 36 | 215 | 6.4 | 16.1 | 0.00 | 0.00 | 0.00 | 37 | 1014.3 |
| 20260902213903 | 36 | 31 | 3.2 | 16.1 | 0.00 | 0.00 | 0.00 | 37 | 1014.2 |
| 20260902213402 | 36 | 224 | 4.8 | 16.1 | 0.00 | 0.00 | 0.00 | 36 | 1014.0 |
| 20260902212902 | 36 | 241 | 4.8 | 12.9 | 0.00 | 0.00 | 0.00 | 38 | 1014.2 |
| 20260902212403 | 37 | 318 | 4.8 | 12.9 | 0.00 | 0.00 | 0.00 | 36 | 1014.2 |
| 20260902211903 | 37 | 240 | 3.2 | 12.9 | 0.00 | 0.00 | 0.00 | 37 | 1014.3 |
| 20260902211402 | 36 | 124 | 4.8 | 12.9 | 0.00 | 0.00 | 0.00 | 37 | 1014.4 |
| 20260902210902 | 36 | 231 | 4.8 | 12.9 | 0.00 | 0.00 | 0.00 | 36 | 1014.4 |
| 20260902210404 | 36 | 10 | 3.2 | 14.5 | 0.00 | 0.00 | 0.00 | 35 | 1014.5 |
| 20260902205403 | 36 | 218 | 3.2 | 14.5 | 0.00 | 0.00 | 0.00 | 37 | 1014.6 |
| 20260902204903 | 36 | 41 | 8.0 | 14.5 | 0.00 | 0.00 | 0.00 | 37 | 1014.6 |
| 20260902204403 | 36 | 238 | 3.2 | 14.5 | 0.00 | 0.00 | 0.00 | 37 | 1014.7 |
| 20260902203903 | 36 | 247 | 4.8 | 8.0 | 0.00 | 0.00 | 0.00 | 39 | 1014.8 |
| 20260902203411 | 36 | 184 | 4.8 | 11.3 | 0.00 | 0.00 | 0.00 | 37 | 1014.7 |
| 20260902202903 | 36 | 280 | 3.2 | 12.9 | 0.00 | 0.00 | 0.00 | 36 | 1014.8 |
| 20260902202402 | 36 | 10 | 4.8 | 12.9 | 0.00 | 0.00 | 0.00 | 37 | 1014.8 |
| 20260902201402 | 36 | 198 | 3.2 | 19.3 | 0.00 | 0.00 | 0.00 | 37 | 1014.9 |
| 20260902195902 | 36 | 229 | 3.2 | 9.7 | 0.00 | 0.00 | 0.00 | 38 | 1015.3 |
| 20260902195403 | 36 | 35 | 3.2 | 9.7 | 0.00 | 0.00 | 0.00 | 37 | 1015.3 |
| 20260902194903 | 36 | 324 | 3.2 | 11.3 | 0.00 | 0.00 | 0.00 | 39 | 1015.4 |
| 20260902193903 | 36 | 191 | 3.2 | 8.0 | 0.00 | 0.00 | 0.00 | 38 | 1015.8 |
| 20260902193403 | 36 | 242 | 3.2 | 12.9 | 0.00 | 0.00 | 0.00 | 38 | 1015.8 |
| 20260902192902 | 35 | 198 | 3.2 | 14.5 | 0.00 | 0.00 | 0.00 | 38 | 1015.8 |
| 20260902192404 | 35 | 240 | 4.8 | 14.5 | 0.00 | 0.00 | 0.00 | 39 | 1015.9 |
| 20260902191403 | 35 | 352 | 1.6 | 9.7 | 0.00 | 0.00 | 0.00 | 41 | 1016.1 |
| 20260902190407 | 35 | 277 | 4.8 | 9.7 | 0.00 | 0.00 | 0.00 | 42 | 1016.3 |
| 20260902183902 | 34 | 222 | 3.2 | 14.5 | 0.00 | 0.00 | 0.00 | 43 | 1016.6 |
| 20260902183403 | 35 | 231 | 3.2 | 11.3 | 0.00 | 0.00 | 0.00 | 41 | 1016.7 |
| 20260902181903 | 34 | 224 | 1.6 | 14.5 | 0.00 | 0.00 | 0.00 | 42 | 1017.0 |
| 20260902181403 | 33 | 234 | 3.2 | 19.3 | 0.00 | 0.00 | 0.00 | 44 | 1017.0 |
| 20260902180903 | 33 | 228 | 6.4 | 19.3 | 0.00 | 0.00 | 0.00 | 43 | 1017.1 |
| 20260902180402 | 34 | 347 | 1.6 | 8.0 | 0.00 | 0.00 | 0.00 | 43 | 1017.1 |
| 20260902173903 | 33 | 236 | 3.2 | 8.0 | 0.00 | 0.00 | 0.00 | 44 | 1017.1 |
| 20260902173403 | 32 | 26 | 3.2 | 8.0 | 0.00 | 0.00 | 0.00 | 45 | 1017.1 |
| 20260902172903 | 32 | 235 | 3.2 | 4.8 | 0.00 | 0.00 | 0.00 | 45 | 1017.1 |
| 20260902171902 | 33 | 233 | 1.6 | 4.8 | 0.00 | 0.00 | 0.00 | 45 | 1017.2 |
| 20260902171403 | 33 | 303 | 1.6 | 12.9 | 0.00 | 0.00 | 0.00 | 45 | 1017.2 |
| 20260902170902 | 32 | 15 | 1.6 | 12.9 | 0.00 | 0.00 | 0.00 | 46 | 1017.2 |
| 20260902164402 | 32 | 71 | 0.0 | 4.8 | 0.00 | 0.00 | 0.00 | 47 | 1017.1 |
| 20260902162403 | 31 | 203 | 1.6 | 4.8 | 0.00 | 0.00 | 0.00 | 51 | 1017.2 |
| 20260902161907 | 31 | 187 | 1.6 | 4.8 | 0.00 | 0.00 | 0.00 | 51 | 1017.3 |
| 20260902160903 | 30 | 150 | 1.6 | 4.8 | 0.00 | 0.00 | 0.00 | 51 | 1017.2 |
| 20260902160403 | 31 | 151 | 1.6 | 4.8 | 0.00 | 0.00 | 0.00 | 52 | 1017.2 |
| 20260902155403 | 30 | 193 | 0.0 | 4.8 | 0.00 | 0.00 | 0.00 | 53 | 1017.2 |
| 20260902154903 | 30 | 56 | 1.6 | 4.8 | 0.00 | 0.00 | 0.00 | 53 | 1017.2 |
| 20260902154403 | 30 | 72 | 1.6 | 4.8 | 0.00 | 0.00 | 0.00 | 54 | 1017.2 |
| 20260902153902 | 30 | 107 | 0.0 | 4.8 | 0.00 | 0.00 | 0.00 | 55 | 1017.2 |
| 20260902153403 | 29 | 81 | 1.6 | 4.8 | 0.00 | 0.00 | 0.00 | 55 | 1017.2 |
| 20260902152403 | 28 | 174 | 1.6 | 4.8 | 0.00 | 0.00 | 0.00 | 57 | 1017.1 |
| 20260902151904 | 28 | 98 | 1.6 | 4.8 | 0.00 | 0.00 | 0.00 | 57 | 1017.0 |
| 20260902150903 | 28 | 119 | 1.6 | 4.8 | 0.00 | 0.00 | 0.00 | 59 | 1017.0 |
| 20260902150402 | 28 | 72 | 1.6 | 4.8 | 0.00 | 0.00 | 0.00 | 60 | 1017.0 |
| 20260902145419 | 28 | 102 | 1.6 | 4.8 | 0.00 | 0.00 | 0.00 | 61 | 1016.9 |
| 20260902144903 | 27 | 124 | 3.2 | 4.8 | 0.00 | 0.00 | 0.00 | 62 | 1017.0 |
| 20260902143903 | 27 | 108 | 0.0 | 4.8 | 0.00 | 0.00 | 0.00 | 65 | 1017.0 |
| 20260902143403 | 26 | 105 | 1.6 | 3.2 | 0.00 | 0.00 | 0.00 | 67 | 1017.0 |
| 20260902141403 | 25 | 115 | 0.0 | 1.6 | 0.00 | 0.00 | 0.00 | 72 | 1016.9 |
| 20260902140903 | 25 | 78 | 0.0 | 0.0 | 0.00 | 0.00 | 0.00 | 74 | 1016.9 |
| 20260902133902 | 23 | 78 | 0.0 | 3.2 | 0.00 | 0.00 | 0.00 | 77 | 1016.6 |
| 20260902133402 | 23 | 78 | 1.6 | 3.2 | 0.00 | 0.00 | 0.00 | 78 | 1016.6 |
| 20260902132903 | 23 | 82 | 0.0 | 3.2 | 0.00 | 0.00 | 0.00 | 77 | 1016.4 |
| 20260902132402 | 23 | 101 | 0.0 | 1.6 | 0.00 | 0.00 | 0.00 | 77 | 1016.4 |
| 20260902131903 | 23 | 101 | 0.0 | 1.6 | 0.00 | 0.00 | 0.00 | 77 | 1016.4 |
| 20260902131402 | 23 | 101 | 0.0 | 1.6 | 0.00 | 0.00 | 0.00 | 77 | 1016.3 |
| 20260902130902 | 23 | 101 | 0.0 | 0.0 | 0.00 | 0.00 | 0.00 | 77 | 1016.3 |
| 20260902130403 | 23 | 101 | 0.0 | 0.0 | 0.00 | 0.00 | 0.00 | 77 | 1016.3 |
| 20260902125903 | 23 | 101 | 0.0 | 0.0 | 0.00 | 0.00 | 0.00 | 78 | 1016.2 |
| 20260902125403 | 23 | 101 | 0.0 | 1.6 | 0.00 | 0.00 | 0.00 | 78 | 1016.2 |
| 20260902124903 | 23 | 101 | 0.0 | 1.6 | 0.00 | 0.00 | 0.00 | 78 | 1016.2 |
| 20260902124403 | 23 | 101 | 0.0 | 1.6 | 0.00 | 0.00 | 0.00 | 78 | 1016.1 |
| 20260902123903 | 23 | 101 | 0.0 | 1.6 | 0.00 | 0.00 | 0.00 | 77 | 1016.1 |
| 20260902123403 | 23 | 101 | 0.0 | 0.0 | 0.00 | 0.00 | 0.00 | 77 | 1016.0 |
| 20260902122903 | 23 | 101 | 0.0 | 0.0 | 0.00 | 0.00 | 0.00 | 77 | 1016.0 |
| 20260902122403 | 23 | 101 | 0.0 | 0.0 | 0.00 | 0.00 | 0.00 | 77 | 1016.0 |
| 20260902121403 | 23 | 101 | 0.0 | 0.0 | 0.00 | 0.00 | 0.00 | 76 | 1016.0 |
| 20260902120903 | 23 | 101 | 0.0 | 0.0 | 0.00 | 0.00 | 0.00 | 76 | 1016.0 |
| 20260902115903 | 23 | 101 | 0.0 | 1.6 | 0.00 | 0.00 | 0.00 | 76 | 1015.9 |
| 20260902115403 | 23 | 125 | 0.0 | 1.6 | 0.00 | 0.00 | 0.00 | 76 | 1015.8 |
| 20260902114903 | 23 | 125 | 0.0 | 0.0 | 0.00 | 0.00 | 0.00 | 75 | 1015.8 |
| 20260902113903 | 23 | 125 | 0.0 | 0.0 | 0.00 | 0.00 | 0.00 | 75 | 1015.8 |
| 20260902113403 | 23 | 125 | 0.0 | 1.6 | 0.00 | 0.00 | 0.00 | 75 | 1015.8 |
| 20260902112903 | 23 | 125 | 0.0 | 1.6 | 0.00 | 0.00 | 0.00 | 75 | 1015.8 |
| 20260902112403 | 24 | 130 | 0.0 | 1.6 | 0.00 | 0.00 | 0.00 | 74 | 1015.8 |
| 20260902111403 | 24 | 163 | 0.0 | 4.8 | 0.00 | 0.00 | 0.00 | 75 | 1015.8 |
| 20260902110903 | 24 | 172 | 0.0 | 4.8 | 0.00 | 0.00 | 0.00 | 76 | 1015.7 |
| 20260902110403 | 24 | 192 | 1.6 | 3.2 | 0.00 | 0.00 | 0.00 | 76 | 1015.8 |
| 20260902105903 | 24 | 112 | 0.0 | 1.6 | 0.00 | 0.00 | 0.00 | 76 | 1015.7 |
| 20260902105403 | 24 | 112 | 0.0 | 1.6 | 0.00 | 0.00 | 0.00 | 75 | 1015.7 |
| 20260902104903 | 24 | 112 | 0.0 | 1.6 | 0.00 | 0.00 | 0.00 | 74 | 1015.7 |
| 20260902104402 | 24 | 112 | 0.0 | 1.6 | 0.00 | 0.00 | 0.00 | 74 | 1015.7 |
| 20260902103903 | 24 | 182 | 0.0 | 0.0 | 0.00 | 0.00 | 0.00 | 74 | 1015.8 |
| 20260902103402 | 24 | 182 | 0.0 | 0.0 | 0.00 | 0.00 | 0.00 | 74 | 1015.9 |
| 20260902102403 | 24 | 182 | 0.0 | 4.8 | 0.00 | 0.00 | 0.00 | 75 | 1016.0 |
| 20260902101904 | 24 | 63 | 0.0 | 1.6 | 0.00 | 0.00 | 0.00 | 74 | 1015.8 |
| 20260902101402 | 24 | 63 | 0.0 | 1.6 | 0.00 | 0.00 | 0.00 | 74 | 1015.8 |
| 20260902100902 | 24 | 63 | 0.0 | 1.6 | 0.00 | 0.00 | 0.00 | 73 | 1015.7 |
| 20260902100403 | 25 | 63 | 0.0 | 1.6 | 0.00 | 0.00 | 0.00 | 73 | 1015.8 |
| 20260902095902 | 24 | 63 | 0.0 | 1.6 | 0.00 | 0.00 | 0.00 | 73 | 1015.8 |
| 20260902095402 | 24 | 63 | 0.0 | 1.6 | 0.00 | 0.00 | 0.00 | 73 | 1015.7 |
| 20260902094903 | 24 | 63 | 0.0 | 1.6 | 0.00 | 0.00 | 0.00 | 73 | 1015.7 |
| 20260902093903 | 25 | 63 | 0.0 | 1.6 | 0.00 | 0.00 | 0.00 | 73 | 1015.7 |
| 20260902093404 | 25 | 63 | 0.0 | 3.2 | 0.00 | 0.00 | 0.00 | 73 | 1015.8 |
| 20260902092903 | 25 | 63 | 1.6 | 3.2 | 0.00 | 0.00 | 0.00 | 73 | 1015.7 |
| 20260902092403 | 25 | 67 | 0.0 | 3.2 | 0.00 | 0.00 | 0.00 | 73 | 1015.7 |
| 20260902091904 | 24 | 62 | 0.0 | 0.0 | 0.00 | 0.00 | 0.00 | 74 | 1015.9 |
| 20260902091403 | 24 | 74 | 0.0 | 1.6 | 0.00 | 0.00 | 0.00 | 73 | 1015.8 |
| 20260902090902 | 25 | 61 | 0.0 | 1.6 | 0.00 | 0.00 | 0.00 | 73 | 1015.7 |
| 20260902085903 | 25 | 61 | 0.0 | 3.2 | 0.00 | 0.00 | 0.00 | 72 | 1015.7 |
| 20260902085402 | 25 | 61 | 0.0 | 3.2 | 0.00 | 0.00 | 0.00 | 72 | 1015.7 |
| 20260902084903 | 25 | 51 | 0.0 | 3.2 | 0.00 | 0.00 | 0.00 | 71 | 1015.7 |
| 20260902084403 | 25 | 5 | 0.0 | 3.2 | 0.00 | 0.00 | 0.00 | 70 | 1015.7 |
| 20260902083903 | 25 | 294 | 0.0 | 3.2 | 0.00 | 0.00 | 0.00 | 69 | 1015.7 |
| 20260902083403 | 25 | 256 | 1.6 | 3.2 | 0.00 | 0.00 | 0.00 | 69 | 1015.8 |
| 20260902082902 | 25 | 268 | 1.6 | 3.2 | 0.00 | 0.00 | 0.00 | 69 | 1015.7 |